Benton Harbor, MI

11:50 AM EST on December 16, 2017 (GMT -0500)
Southwest Michigan Regional

Weather History for KBEH - October, 2013

Change the Weather History Date:

Wednesday, October 30, 2013

  Actual Average Record
Temperature  
Mean Temperature 50 °F -  
Max Temperature 60 °F 58 °F 81 °F (1950)
Min Temperature 39 °F 35 °F 15 °F (1988)
Degree Days  
Heating Degree Days 16    
Moisture  
Dew Point 50 °F    
Average Humidity 87    
Maximum Humidity 100    
Minimum Humidity 71    
Precipitation  
Precipitation 0.63 in - - ()
Sea Level Pressure  
Sea Level Pressure 30.02 in    
Wind  
Wind Speed 6 mph (SE)    
Max Wind Speed 14 mph    
Max Gust Speed 17 mph    
Visibility 5 miles    
Events Rain , Thunderstorm    
Averages and records for this station are not official NWS values.
T = Trace of Precipitation, MM = Missing Value Source: NWS Daily Summary

Daily Weather History Graph

Daily Weather History Graph

Search for Another Location

Airport or City:

Trip Planner

Search our weather history database for the weather conditions in past years. The results will help you decide how hot, cold, wet, or windy it might be!

Date:

Astronomy

Oct. 30, 2013 Rise Set
Actual Time 8:16 AM EDT 6:41 PM EDT
Civil Twilight 7:47 AM EDT 7:10 PM EDT
Nautical Twilight 7:14 AM EDT 7:43 PM EDT
Astronomical Twilight 6:41 AM EDT 8:16 PM EDT
Moon 4:00 AM EDT (10/30) 4:30 PM EDT (10/30)
Length of Visible Light 11h 23m
Length of Day
10h 25m
Waning Crescent, 17% of the Moon is Illuminated
Oct 30
Waning Crescent
Nov 3
New
Nov 10
First Quarter
Nov 17
Full
Nov 25
Last Quarter

Hourly Weather History & Observations

Time (EDT) Temp. Windchill Dew Point Humidity Pressure Visibility Wind Dir Wind Speed Gust Speed Precip Events Conditions
12:50 AM 48.2 °F - 39.2 °F 71% 30.17 in 9.0 mi SE 5.8 mph - N/A   Overcast
12:53 AM 48.9 °F - 39.9 °F 71% 30.17 in 9.0 mi SE 4.6 mph - N/A   Overcast
1:49 AM 48.2 °F - 39.2 °F 71% 30.16 in 8.0 mi ESE 4.6 mph - N/A   Overcast
1:53 AM 48.9 °F - 39.9 °F 71% 30.17 in 8.0 mi ESE 5.8 mph - N/A   Overcast
2:53 AM 48.9 °F - 41.0 °F 74% 30.17 in 8.0 mi Calm Calm - N/A   Overcast
3:30 AM 48.2 °F - 42.8 °F 82% 30.15 in 7.0 mi Calm Calm - N/A   Overcast
3:53 AM 48.0 °F - 41.0 °F 77% 30.15 in 7.0 mi SSE 3.5 mph - N/A   Overcast
4:53 AM 48.0 °F - 41.0 °F 77% 30.14 in 6.0 mi South 4.6 mph - N/A   Haze
5:53 AM 46.9 °F - 41.0 °F 80% 30.14 in 6.0 mi Calm Calm - N/A   Haze
6:53 AM 43.0 °F - 41.0 °F 93% 30.15 in 5.0 mi Calm Calm - N/A   Partly Cloudy
7:53 AM 41.0 °F 38.0 °F 39.0 °F 93% 30.15 in 4.0 mi East 4.6 mph - N/A   Clear
8:30 AM 39.2 °F 37.0 °F 37.4 °F 93% 30.14 in 2.5 mi East 3.5 mph - N/A   Clear
8:53 AM 39.9 °F 36.7 °F 39.0 °F 97% 30.15 in 2.5 mi East 4.6 mph - N/A   Clear
9:10 AM 42.8 °F 40.1 °F 41.0 °F 93% 30.15 in 3.0 mi East 4.6 mph - N/A   Clear
9:53 AM 46.9 °F - 43.0 °F 86% 30.16 in 4.0 mi ESE 5.8 mph - N/A   Clear
10:53 AM 53.1 °F - 46.0 °F 77% 30.13 in 5.0 mi ESE 8.1 mph - N/A   Haze
11:53 AM 57.0 °F - 48.0 °F 72% 30.13 in 6.0 mi SSE 8.1 mph - N/A   Haze
12:53 PM 60.1 °F - 51.1 °F 72% 30.10 in 8.0 mi SSE 10.4 mph 16.1 mph N/A   Mostly Cloudy
1:51 PM 60.8 °F - 53.6 °F 77% 30.06 in 10.0 mi SSE 8.1 mph - N/A   Overcast
1:53 PM 60.1 °F - 53.1 °F 78% 30.07 in 10.0 mi SE 9.2 mph - N/A   Overcast
2:53 PM 60.1 °F - 53.1 °F 78% 30.02 in 10.0 mi SE 11.5 mph - N/A   Overcast
3:11 PM 60.8 °F - 53.6 °F 77% 30.03 in 10.0 mi SE 11.5 mph - N/A   Overcast
3:21 PM 60.8 °F - 53.6 °F 77% 30.03 in 10.0 mi SE 9.2 mph - N/A   Overcast
3:53 PM 60.1 °F - 53.1 °F 78% 30.01 in 9.0 mi SE 6.9 mph - N/A   Overcast
4:53 PM 59.0 °F - 53.1 °F 81% 30.00 in 8.0 mi SE 5.8 mph - N/A   Overcast
5:53 PM 59.0 °F - 53.1 °F 81% 29.98 in 7.0 mi SE 9.2 mph - N/A   Overcast
6:12 PM 59.0 °F - 53.6 °F 82% 29.96 in 7.0 mi SE 11.5 mph - N/A Thunderstorm Overcast
6:31 PM 59.0 °F - 53.6 °F 82% 29.96 in 7.0 mi SSE 10.4 mph - N/A Thunderstorm Overcast
6:42 PM 59.0 °F - 53.6 °F 82% 29.97 in 8.0 mi SSE 8.1 mph - N/A Thunderstorm Overcast
6:53 PM 57.9 °F - 54.0 °F 87% 29.97 in 5.0 mi SE 13.8 mph 17.3 mph N/A Thunderstorm Overcast
7:08 PM 57.2 °F - 55.4 °F 94% 29.97 in 5.0 mi SE 11.5 mph - N/A   Mostly Cloudy
7:16 PM 57.2 °F - 55.4 °F 94% 29.97 in 5.0 mi SSE 8.1 mph - N/A   Scattered Clouds
7:53 PM 57.0 °F - 55.0 °F 93% 29.96 in 4.0 mi SE 9.2 mph - 0.01 in Rain Light Rain
8:30 PM 57.2 °F - 55.4 °F 94% 29.96 in 4.0 mi SSE 11.5 mph - 0.00 in Rain Light Rain
8:44 PM 57.2 °F - 55.4 °F 94% 29.95 in 4.0 mi SSE 8.1 mph - 0.01 in Rain Light Rain
8:53 PM 57.0 °F - 55.9 °F 96% 29.96 in 3.0 mi SSE 9.2 mph - 0.03 in Rain Rain
9:01 PM 57.2 °F - 55.4 °F 94% 29.95 in 2.5 mi SSE 6.9 mph - 0.02 in Rain Rain
9:16 PM 57.2 °F - 55.4 °F 94% 29.95 in 3.0 mi SSE 9.2 mph - 0.04 in Rain Light Rain
9:29 PM 55.4 °F - 55.4 °F 100% 29.94 in 2.5 mi SE 6.9 mph - 0.07 in Rain Rain
9:48 PM 55.4 °F - 55.4 °F 100% 29.93 in 2.0 mi SSE 5.8 mph - 0.13 in Rain Rain
9:53 PM 55.9 °F - 55.9 °F 100% 29.94 in 2.0 mi SSE 6.9 mph - 0.15 in Rain Rain
10:06 PM 55.4 °F - 55.4 °F 100% 29.93 in 2.0 mi SE 9.2 mph - 0.04 in Rain Rain
10:08 PM 55.4 °F - 55.4 °F 100% 29.92 in 2.0 mi SE 9.2 mph - 0.04 in Rain Rain
10:13 PM 55.4 °F - 55.4 °F 100% 29.91 in 1.8 mi SE 9.2 mph - 0.06 in Rain Rain
10:34 PM 55.4 °F - 55.4 °F 100% 29.89 in 2.0 mi ESE 10.4 mph - 0.11 in Rain Rain
10:42 PM 57.2 °F - 57.2 °F 100% 29.89 in 1.8 mi ESE 8.1 mph - 0.13 in Rain Rain
10:53 PM 57.0 °F - 57.0 °F 100% 29.89 in 1.8 mi SE 8.1 mph - 0.16 in Rain Rain
11:42 PM 57.2 °F - 57.2 °F 100% 29.84 in 1.2 mi SE 12.7 mph - 0.23 in Rain Heavy Rain
11:49 PM 57.2 °F - 57.2 °F 100% 29.83 in 1.2 mi ESE 12.7 mph - 0.26 in Rain Heavy Rain
11:53 PM 57.9 °F - 57.9 °F 100% 29.83 in 1.8 mi ESE 11.5 mph - 0.28 in Rain Rain